EW7684 Camano Island WA US current weather conditions

sailwx.info

Wind from 250 at 0 knots gusting 6

Air temperature 17.2° C
Dewpoint 13.7° C

Last reported at 2020-Aug-07 00:10 UTC.
Time now 2020-Aug-07 01:15 UTC

Location: N 48°12' W 122°32'.
View on Google Maps.

See reports from other nearby stations

  
Tides and Currents Weather Stations Pressure Air Temp Water Temp Dewpoint Dewpoint Depression Visibility Wind Speed Wind Dir Waves Ship Positions
date/time (UTC)wind fromknots sea level pressurealtimeterstation pressurevisibilityair tempwater tempwave heightnotes
2020-Aug-07 00:10 250 0 gusting 6 17.2
2020-Aug-07 00:05 237 1 gusting 6 17.2
2020-Aug-06 23:55 231 0 gusting 5 16.7
2020-Aug-06 23:50 214 0 gusting 4 16.7
2020-Aug-06 23:45 269 16.7
2020-Aug-06 23:40 245 0 gusting 4 16.7
2020-Aug-06 23:35 231 0 gusting 4 16.1
2020-Aug-06 23:30 226 0 gusting 3 16.1
2020-Aug-06 23:25 236 0 gusting 3 16.1
2020-Aug-06 23:20 217 0 gusting 3 16.1
2020-Aug-06 23:15 187 0 gusting 3 16.1
2020-Aug-06 23:10 270 16.1
2020-Aug-06 23:05 276 16.1
2020-Aug-06 23:00 235 16.1
2020-Aug-06 22:55 239 16.1
2020-Aug-06 22:50 250 0 gusting 2 15.6
2020-Aug-06 22:45 270 0 gusting 2 15.6
2020-Aug-06 22:40 275 0 gusting 2 15.6
2020-Aug-06 22:35 258 0 gusting 3 15.6
2020-Aug-06 22:30 273 0 gusting 5 15.6
2020-Aug-06 22:25 268 0 gusting 5 15.6
2020-Aug-06 22:20 247 1 gusting 5 15.6
2020-Aug-06 22:15 241 0 gusting 5 15.6
2020-Aug-06 22:10 288 15.6
2020-Aug-06 22:05 288 0 gusting 1 15.6
2020-Aug-06 22:00 286 0 gusting 4 15.6
2020-Aug-06 21:55 282 1 gusting 4 15.6
2020-Aug-06 21:50 278 0 gusting 2 15.6
2020-Aug-06 21:45 270 15.6
2020-Aug-06 21:40 269 0 gusting 2 15.6
2020-Aug-06 21:35 263 0 gusting 4 15.6
2020-Aug-06 21:30 262 0 gusting 4 15.0
2020-Aug-06 21:25 272 0 gusting 2 15.0
2020-Aug-06 21:20 277 1 gusting 2 15.0
2020-Aug-06 21:15 277 1 gusting 2 15.0
2020-Aug-06 21:10 276 2 gusting 4 15.0
2020-Aug-06 21:05 275 3 gusting 4 15.0
2020-Aug-06 21:00 275 3 gusting 5 15.0
2020-Aug-06 20:55 276 3 gusting 5 15.0
2020-Aug-06 20:50 276 2 gusting 4 15.0
2020-Aug-06 20:45 273 1 gusting 4 15.0
2020-Aug-06 20:40 274 1 gusting 4 15.0
2020-Aug-06 20:35 273 2 gusting 4 15.0
2020-Aug-06 20:30 274 3 gusting 4 15.0
2020-Aug-06 20:25 275 3 gusting 5 15.0
2020-Aug-06 20:20 278 3 gusting 5 15.0
2020-Aug-06 20:15 278 3 gusting 5 15.0
2020-Aug-06 20:10 277 2 gusting 5 15.0
2020-Aug-06 20:05 261 1 gusting 5 15.0
2020-Aug-06 20:00 222 1 gusting 5 15.0
2020-Aug-06 19:55 225 0 gusting 5 15.0
2020-Aug-06 19:50 263 0 gusting 4 15.0
2020-Aug-06 19:45 276 1 gusting 6 15.0
2020-Aug-06 19:40 275 3 gusting 6 15.0
2020-Aug-06 19:35 279 5 gusting 7 14.4
2020-Aug-06 19:30 280 5 gusting 7 14.4
2020-Aug-06 19:25 282 5 gusting 8 14.4
2020-Aug-06 19:20 283 5 gusting 8 14.4
2020-Aug-06 19:15 279 5 gusting 7 14.4
2020-Aug-06 19:10 277 5 gusting 7 14.4
2020-Aug-06 19:05 281 6 gusting 8 14.4
2020-Aug-06 19:00 281 6 gusting 10 14.4
2020-Aug-06 18:55 280 6 gusting 10 14.4
2020-Aug-06 18:50 283 6 gusting 9 14.4
2020-Aug-06 18:45 283 5 gusting 8 15.0
2020-Aug-06 18:40 283 5 gusting 7 15.0
2020-Aug-06 18:35 284 5 gusting 7 15.0
2020-Aug-06 18:30 281 5 gusting 7 15.0
2020-Aug-06 18:25 282 5 gusting 7 15.0
2020-Aug-06 18:20 285 5 gusting 9 15.0
2020-Aug-06 18:15 283 6 gusting 9 15.0
2020-Aug-06 18:10 282 6 gusting 8 15.0
2020-Aug-06 18:05 282 6 gusting 8 14.4
2020-Aug-06 18:00 282 6 gusting 9 14.4
2020-Aug-06 17:55 282 6 gusting 9 14.4
2020-Aug-06 17:50 281 6 gusting 8 14.4
2020-Aug-06 17:45 282 5 gusting 8 14.4
2020-Aug-06 17:40 282 4 gusting 6 14.4
2020-Aug-06 17:35 284 3 gusting 6 13.9
2020-Aug-06 17:30 286 3 gusting 7 13.9
2020-Aug-06 17:25 287 3 gusting 7 13.3
2020-Aug-06 17:20 287 3 gusting 6 13.3
2020-Aug-06 17:15 287 3 gusting 6 13.3
2020-Aug-06 17:10 284 2 gusting 6 12.8
2020-Aug-06 17:05 283 3 gusting 6 12.8
2020-Aug-06 17:00 282 3 gusting 6 12.2
2020-Aug-06 16:55 281 3 gusting 7 12.2
2020-Aug-06 16:50 280 3 gusting 7 12.2
2020-Aug-06 16:45 279 3 gusting 6 12.2
2020-Aug-06 16:40 282 4 gusting 11 12.2
2020-Aug-06 16:35 279 4 gusting 11 12.2
2020-Aug-06 16:30 278 5 gusting 10 12.2
2020-Aug-06 16:25 276 4 gusting 10 12.2
2020-Aug-06 16:20 274 3 gusting 8 12.2
2020-Aug-06 16:15 283 3 gusting 8 12.2
2020-Aug-06 16:10 287 3 gusting 6 12.2
2020-Aug-06 16:05 287 2 gusting 6 12.2
2020-Aug-06 16:00 294 2 gusting 8 12.2
2020-Aug-06 15:55 294 1 gusting 8 12.2
2020-Aug-06 15:50 293 0 gusting 3 12.2
2020-Aug-06 15:45 353 0 gusting 4 12.2
2020-Aug-06 15:40 013 0 gusting 4 12.2
2020-Aug-06 15:35 044 0 gusting 1 12.2
2020-Aug-06 15:30 187 2 gusting 8 12.2
2020-Aug-06 15:25 187 2 gusting 8 14.4
2020-Aug-06 15:20 187 2 gusting 8 14.4
2020-Aug-06 15:15 187 2 gusting 8 14.4
2020-Aug-06 15:10 187 2 gusting 8 14.4
2020-Aug-06 15:05 187 2 gusting 8 14.4
2020-Aug-06 15:00 187 2 gusting 8 14.4
2020-Aug-06 14:55 187 2 gusting 8 14.4
2020-Aug-06 14:50 187 2 gusting 8 14.4
2020-Aug-06 14:45 187 2 gusting 8 14.4
2020-Aug-06 14:40 187 2 gusting 8 14.4
2020-Aug-06 14:35 187 2 gusting 8 14.4
2020-Aug-06 14:30 187 2 gusting 8 14.4
2020-Aug-06 14:25 187 2 gusting 8 14.4
2020-Aug-06 14:20 187 2 gusting 8 14.4
2020-Aug-06 14:15 187 2 gusting 8 14.4
2020-Aug-06 14:10 187 2 gusting 8 14.4
2020-Aug-06 14:05 187 2 gusting 8 14.4
2020-Aug-06 14:00 187 2 gusting 8 14.4
2020-Aug-06 13:55 187 2 gusting 8 14.4
2020-Aug-06 13:50 187 2 gusting 8 14.4
2020-Aug-06 13:45 187 2 gusting 8 14.4
2020-Aug-06 13:40 187 2 gusting 8 14.4
2020-Aug-06 13:35 187 2 gusting 8 14.4
2020-Aug-06 13:30 187 2 gusting 8 14.4
2020-Aug-06 13:25 187 2 gusting 8 14.4
2020-Aug-06 13:20 187 2 gusting 8 14.4
2020-Aug-06 13:15 187 2 gusting 8 14.4
2020-Aug-06 13:10 187 2 gusting 8 14.4
2020-Aug-06 13:05 187 2 gusting 8 14.4
2020-Aug-06 13:00 187 2 gusting 8 14.4
2020-Aug-06 12:55 187 2 gusting 8 14.4
2020-Aug-06 12:50 187 2 gusting 8 14.4
2020-Aug-06 12:45 187 2 gusting 8 14.4
2020-Aug-06 12:40 187 2 gusting 8 14.4
2020-Aug-06 12:35 187 2 gusting 8 14.4
2020-Aug-06 12:30 187 2 gusting 8 14.4
2020-Aug-06 12:25 187 2 gusting 8 14.4
2020-Aug-06 12:20 187 2 gusting 8 14.4
2020-Aug-06 12:15 187 2 gusting 8 14.4
2020-Aug-06 12:10 173 2 gusting 8 14.4
2020-Aug-06 12:05 127 1 gusting 8 15.0
2020-Aug-06 12:00 135 0 gusting 6 15.6
2020-Aug-06 11:55 139 1 gusting 6 15.6
2020-Aug-06 11:50 132 1 gusting 7 15.6
2020-Aug-06 11:45 137 2 gusting 7 15.6
2020-Aug-06 11:40 138 2 gusting 7 15.6
2020-Aug-06 11:35 135 1 gusting 7 15.6
2020-Aug-06 11:30 142 1 gusting 7 15.6
2020-Aug-06 11:25 139 1 gusting 5 15.6
2020-Aug-06 11:20 133 1 gusting 5 15.6
2020-Aug-06 11:10 141 0 gusting 5 15.6
2020-Aug-06 11:05 126 0 gusting 4 15.6
2020-Aug-06 11:00 125 1 gusting 4 15.6
2020-Aug-06 10:55 130 0 gusting 4 15.6
2020-Aug-06 10:50 137 0 gusting 4 15.6
2020-Aug-06 10:45 145 0 gusting 4 15.6
2020-Aug-06 10:40 141 0 gusting 3 15.6
2020-Aug-06 10:35 136 0 gusting 5 15.6
2020-Aug-06 10:30 141 1 gusting 6 15.6
2020-Aug-06 10:25 145 0 gusting 6 15.6
2020-Aug-06 10:20 151 0 gusting 4 15.6
2020-Aug-06 10:15 153 0 gusting 4 15.6
2020-Aug-06 10:10 146 0 gusting 4 15.6
2020-Aug-06 10:05 130 15.0
2020-Aug-06 10:00 121 15.0
2020-Aug-06 09:55 122 15.0
2020-Aug-06 09:50 121 15.0
2020-Aug-06 09:45 111 15.0
2020-Aug-06 09:40 108 15.0
2020-Aug-06 09:35 106 15.0
2020-Aug-06 09:30 105 15.0
2020-Aug-06 09:25 15.0
2020-Aug-06 09:20 15.0
2020-Aug-06 09:15 167 15.0
2020-Aug-06 09:10 202 15.0
2020-Aug-06 09:05 200 15.0
2020-Aug-06 09:00 148 15.0
2020-Aug-06 08:55 127 15.0
2020-Aug-06 08:50 123 15.0
2020-Aug-06 08:45 123 15.0
2020-Aug-06 08:40 125 15.0
2020-Aug-06 08:35 097 15.0
2020-Aug-06 08:30 090 15.0
2020-Aug-06 08:25 092 0 gusting 1 15.0
2020-Aug-06 08:20 090 0 gusting 2 15.0
2020-Aug-06 08:15 088 0 gusting 2 15.0
2020-Aug-06 08:10 085 0 gusting 2 15.0
2020-Aug-06 08:05 084 0 gusting 2 15.0
2020-Aug-06 08:00 084 0 gusting 2 15.0
2020-Aug-06 07:55 094 15.6
2020-Aug-06 07:45 111 15.6
2020-Aug-06 07:40 121 15.6
2020-Aug-06 07:35 129 15.6
2020-Aug-06 07:30 139 15.6
2020-Aug-06 07:25 250 15.6
2020-Aug-06 07:20 187 15.6
2020-Aug-06 07:15 174 15.6
2020-Aug-06 07:10 166 15.6
2020-Aug-06 07:05 270 15.6
2020-Aug-06 07:00 277 15.6
2020-Aug-06 06:55 270 0 gusting 3 15.6
2020-Aug-06 06:50 269 15.6
2020-Aug-06 06:45 258 15.6
2020-Aug-06 06:40 248 15.6
2020-Aug-06 06:35 270 15.6
2020-Aug-06 06:30 277 15.6
2020-Aug-06 06:25 292 15.6
2020-Aug-06 06:20 291 15.6
2020-Aug-06 06:15 327 0 gusting 3 15.6
2020-Aug-06 06:10 330 0 gusting 4 15.6
2020-Aug-06 06:05 332 0 gusting 4 15.6
2020-Aug-06 06:00 351 15.6
2020-Aug-06 05:55 032 0 gusting 5 15.6
2020-Aug-06 05:50 043 0 gusting 5 15.6
2020-Aug-06 05:45 349 15.6
2020-Aug-06 05:40 349 0 gusting 2 15.6
2020-Aug-06 05:35 341 16.1
2020-Aug-06 05:30 352 16.1
2020-Aug-06 05:25 012 16.1
2020-Aug-06 05:20 343 0 gusting 2 16.1
2020-Aug-06 05:15 345 0 gusting 4 16.1
2020-Aug-06 05:10 353 0 gusting 4 16.1
2020-Aug-06 05:05 346 0 gusting 3 16.1
2020-Aug-06 05:00 344 16.1
2020-Aug-06 04:55 069 16.1
2020-Aug-06 04:50 074 16.1
2020-Aug-06 04:45 030 16.1
2020-Aug-06 04:40 001 16.7
2020-Aug-06 04:35 021 16.1
2020-Aug-06 04:30 052 16.1
2020-Aug-06 04:25 323 16.1
2020-Aug-06 04:20 287 0 gusting 2 16.1
2020-Aug-06 04:15 274 1 gusting 6 16.1
2020-Aug-06 04:10 286 3 gusting 9 16.1
2020-Aug-06 04:05 285 2 gusting 9 16.1
2020-Aug-06 04:00 271 1 gusting 7 16.1
2020-Aug-06 03:55 264 1 gusting 7 16.1
2020-Aug-06 03:50 267 1 gusting 5 16.1
2020-Aug-06 03:45 270 1 gusting 6 16.1
2020-Aug-06 03:40 267 1 gusting 6 16.1
2020-Aug-06 03:35 266 1 gusting 6 16.1
2020-Aug-06 03:30 264 0 gusting 6 16.7
2020-Aug-06 03:25 264 0 gusting 3 16.7
2020-Aug-06 03:20 241 0 gusting 3 16.7
2020-Aug-06 03:15 269 0 gusting 2 16.7
2020-Aug-06 03:10 267 0 gusting 6 16.7
2020-Aug-06 03:05 260 0 gusting 6 17.2
2020-Aug-06 02:55 290 0 gusting 5 17.8
2020-Aug-06 02:50 279 1 gusting 2 17.8
2020-Aug-06 02:45 260 1 gusting 4 18.3
2020-Aug-06 02:40 264 2 gusting 6 18.3
2020-Aug-06 02:35 270 2 gusting 6 18.9
2020-Aug-06 02:30 262 1 gusting 6 19.4
2020-Aug-06 02:25 276 1 gusting 6 19.4
2020-Aug-06 02:20 292 0 gusting 6 20.0
2020-Aug-06 02:15 289 0 gusting 2 20.0
2020-Aug-06 02:10 013 20.0
2020-Aug-06 02:05 007 20.0
2020-Aug-06 02:00 274 20.0
2020-Aug-06 01:55 264 0 gusting 3 19.4
2020-Aug-06 01:50 270 0 gusting 3 20.0
2020-Aug-06 01:45 278 0 gusting 3 20.0
2020-Aug-06 01:40 281 1 gusting 3 19.4
2020-Aug-06 01:35 281 1 gusting 3 19.4
2020-Aug-06 01:30 284 1 gusting 3 19.4
2020-Aug-06 01:25 292 1 gusting 4 20.0
2020-Aug-06 01:20 298 1 gusting 4 20.0
2020-Aug-06 01:15 291 1 gusting 3 20.0
2020-Aug-06 01:10 281 0 gusting 4 19.4
2020-Aug-06 01:05 284 1 gusting 4 20.0
2020-Aug-06 01:00 281 1 gusting 4 19.4
2020-Aug-06 00:55 277 1 gusting 6 19.4
2020-Aug-06 00:50 277 2 gusting 6 19.4
2020-Aug-06 00:45 280 2 gusting 5 19.4
2020-Aug-06 00:40 283 2 gusting 4 20.0
2020-Aug-06 00:35 282 2 gusting 3 20.0
2020-Aug-06 00:30 280 2 gusting 4 20.0
2020-Aug-06 00:25 279 2 gusting 4 20.0
2020-Aug-06 00:20 280 2 gusting 4 20.0
2020-Aug-06 00:15 280 2 gusting 4 20.0
2020-Aug-06 00:10 280 2 gusting 4 20.0
2020-Aug-06 00:05 275 2 gusting 4 20.0
2020-Aug-06 00:00 273 2 gusting 6 19.4
2020-Aug-05 23:55 278 3 gusting 6 20.0
2020-Aug-05 23:50 283 3 gusting 5 20.0
2020-Aug-05 23:45 281 3 gusting 5 20.0
2020-Aug-05 23:40 280 3 gusting 4 19.4
2020-Aug-05 23:35 281 3 gusting 5 19.4
2020-Aug-05 23:30 282 3 gusting 5 19.4
2020-Aug-05 23:25 283 3 gusting 4 20.0
2020-Aug-05 23:20 283 3 gusting 4 20.0
2020-Aug-05 23:15 283 3 gusting 4 20.0
2020-Aug-05 23:10 284 3 gusting 4 20.0
2020-Aug-05 23:05 284 3 gusting 4 20.0
2020-Aug-05 23:00 286 3 gusting 4 20.0
2020-Aug-05 22:55 286 2 gusting 4 20.0
2020-Aug-05 22:50 282 2 gusting 3 20.0
2020-Aug-05 22:45 281 2 gusting 3 20.0
2020-Aug-05 22:40 285 2 gusting 3 20.0
2020-Aug-05 22:35 287 3 gusting 4 20.0
2020-Aug-05 22:30 288 2 gusting 4 20.0
2020-Aug-05 22:25 286 2 gusting 3 20.0
2020-Aug-05 22:20 283 2 gusting 3 20.0
2020-Aug-05 22:15 282 2 gusting 3 20.0
2020-Aug-05 22:10 283 2 gusting 3 20.0
2020-Aug-05 22:05 287 2 gusting 3 20.0
2020-Aug-05 22:00 288 2 gusting 5 20.0
2020-Aug-05 21:55 286 2 gusting 5 19.4
2020-Aug-05 21:50 285 2 gusting 3 19.4
2020-Aug-05 21:45 279 2 gusting 3 18.9
2020-Aug-05 21:40 279 2 gusting 3 18.9
2020-Aug-05 21:35 283 2 gusting 3 19.4
2020-Aug-05 21:30 284 2 gusting 3 19.4
2020-Aug-05 21:25 281 2 gusting 3 18.9
2020-Aug-05 21:20 280 2 gusting 3 18.9
2020-Aug-05 21:15 281 2 gusting 3 18.9
2020-Aug-05 21:10 281 2 gusting 3 18.9
2020-Aug-05 21:05 280 2 gusting 3 18.9
2020-Aug-05 21:00 280 2 gusting 3 18.9
2020-Aug-05 20:55 283 2 gusting 3 18.9
2020-Aug-05 20:50 282 2 gusting 3 18.9
2020-Aug-05 20:45 281 2 gusting 3 18.9
2020-Aug-05 20:40 282 1 gusting 3 18.9
2020-Aug-05 20:35 284 1 gusting 3 18.9
2020-Aug-05 20:25 288 1 gusting 3 18.9
2020-Aug-05 20:20 288 1 gusting 3 18.9
2020-Aug-05 20:15 288 1 gusting 2 18.9
2020-Aug-05 20:10 287 1 gusting 3 18.9
2020-Aug-05 20:05 286 1 gusting 3 18.9
2020-Aug-05 20:00 283 1 gusting 2 18.3
2020-Aug-05 19:55 282 1 gusting 2 18.3
2020-Aug-05 19:50 286 1 gusting 2 18.3
2020-Aug-05 19:45 287 1 gusting 2 18.3
2020-Aug-05 19:40 288 1 gusting 3 18.3
2020-Aug-05 19:35 287 1 gusting 3 18.3
2020-Aug-05 19:30 285 1 gusting 3 18.3
2020-Aug-05 19:25 284 1 gusting 3 17.8
2020-Aug-05 19:20 286 1 gusting 2 17.8
2020-Aug-05 19:15 287 1 gusting 2 17.8
2020-Aug-05 19:10 286 1 gusting 2 17.8
2020-Aug-05 19:05 285 1 gusting 2 17.2
2020-Aug-05 19:00 285 1 gusting 2 17.2
2020-Aug-05 18:55 285 2 gusting 3 17.2
2020-Aug-05 18:50 283 2 gusting 3 16.7
2020-Aug-05 18:45 283 1 gusting 2 16.7
2020-Aug-05 18:40 298 1 gusting 3 16.7
2020-Aug-05 18:35 316 1 gusting 5 16.7
2020-Aug-05 18:30 315 1 gusting 5 16.1
2020-Aug-05 18:25 320 1 gusting 5 16.1
2020-Aug-05 18:20 327 2 gusting 5 16.1
2020-Aug-05 18:15 329 2 gusting 5 16.1
2020-Aug-05 18:10 318 1 gusting 4 16.1
2020-Aug-05 18:05 300 1 gusting 4 16.1
2020-Aug-05 18:00 296 0 gusting 4 16.1
2020-Aug-05 17:50 286 1 gusting 4 15.6
2020-Aug-05 17:45 282 0 gusting 1 15.6
2020-Aug-05 17:40 281 0 gusting 2 15.6
2020-Aug-05 17:35 283 1 gusting 2 15.6
2020-Aug-05 17:30 283 1 gusting 2 15.6
2020-Aug-05 17:25 285 0 gusting 2 15.6
2020-Aug-05 17:20 294 0 gusting 2 15.6
2020-Aug-05 17:15 302 0 gusting 2 15.6
2020-Aug-05 17:10 311 0 gusting 2 15.0
2020-Aug-05 17:05 327 0 gusting 3 15.0
2020-Aug-05 17:00 322 0 gusting 3 15.0
2020-Aug-05 16:55 322 1 gusting 3 15.0
2020-Aug-05 16:50 327 1 gusting 3 15.0
2020-Aug-05 16:45 328 0 gusting 3 15.0
2020-Aug-05 16:40 332 0 gusting 3 15.0
2020-Aug-05 16:35 329 0 gusting 3 14.4
2020-Aug-05 16:30 323 0 gusting 2 14.4
2020-Aug-05 16:25 327 0 gusting 2 14.4
2020-Aug-05 16:20 348 14.4
2020-Aug-05 16:15 294 0 gusting 2 13.9
2020-Aug-05 16:10 267 13.9
2020-Aug-05 16:05 322 0 gusting 3 13.9
2020-Aug-05 16:00 332 1 gusting 3 13.9
2020-Aug-05 15:55 337 1 gusting 3 13.3
2020-Aug-05 15:50 339 0 gusting 3 13.3
2020-Aug-05 15:45 337 0 gusting 2 13.3
2020-Aug-05 15:40 335 1 gusting 4 12.8
2020-Aug-05 15:35 337 1 gusting 4 12.8
2020-Aug-05 15:30 342 0 gusting 4 12.8
2020-Aug-05 15:25 337 0 gusting 4 12.8
2020-Aug-05 15:20 320 12.8
2020-Aug-05 15:15 297 12.8
2020-Aug-05 15:10 304 12.8
2020-Aug-05 15:05 290 12.2
2020-Aug-05 15:00 289 12.2
2020-Aug-05 14:55 282 12.2
2020-Aug-05 14:50 286 12.2
2020-Aug-05 14:45 285 12.2
2020-Aug-05 14:40 286 12.2
2020-Aug-05 14:35 287 12.2
2020-Aug-05 14:30 283 12.2
2020-Aug-05 14:25 271 12.2
2020-Aug-05 14:20 279 12.2
2020-Aug-05 14:15 289 12.2
2020-Aug-05 14:10 12.2
2020-Aug-05 14:05 12.2
2020-Aug-05 14:00 11.7
2020-Aug-05 13:55 11.7
2020-Aug-05 13:50 11.7
2020-Aug-05 13:45 11.7
2020-Aug-05 13:40 11.7
2020-Aug-05 13:35 11.7
2020-Aug-05 13:30 11.7
2020-Aug-05 13:25 11.7
2020-Aug-05 13:20 11.7
2020-Aug-05 13:15 11.7
2020-Aug-05 13:10 11.7
2020-Aug-05 13:05 11.7
2020-Aug-05 13:00 11.7
2020-Aug-05 12:55 11.7
2020-Aug-05 12:50 11.7
2020-Aug-05 12:45 11.7
2020-Aug-05 12:40 11.7
2020-Aug-05 12:35 11.7
2020-Aug-05 12:30 11.7
2020-Aug-05 12:25 11.7
2020-Aug-05 12:20 11.7
2020-Aug-05 12:15 11.7
2020-Aug-05 12:10 11.7
2020-Aug-05 12:05 11.7
2020-Aug-05 12:00 11.7
2020-Aug-05 11:55 277 12.2
2020-Aug-05 11:50 281 12.8
2020-Aug-05 11:45 284 0 gusting 2 12.8
2020-Aug-05 11:40 284 0 gusting 2 12.8
2020-Aug-05 11:35 282 0 gusting 1 12.8
2020-Aug-05 11:30 278 12.8
2020-Aug-05 11:25 284 12.8
2020-Aug-05 11:20 281 0 gusting 1 13.3
2020-Aug-05 11:15 283 0 gusting 2 13.3
2020-Aug-05 11:10 286 0 gusting 2 13.3
2020-Aug-05 11:05 287 1 gusting 2 13.3
2020-Aug-05 11:00 285 1 gusting 4 13.3
2020-Aug-05 10:55 279 1 gusting 4 13.3
2020-Aug-05 10:50 276 1 gusting 4 13.3
2020-Aug-05 10:45 279 1 gusting 4 13.3
2020-Aug-05 10:40 280 2 gusting 4 13.3
2020-Aug-05 10:35 280 2 gusting 4 13.3
2020-Aug-05 10:30 279 2 gusting 4 13.3
2020-Aug-05 10:25 273 1 gusting 3 13.3
2020-Aug-05 10:20 273 2 gusting 4 13.3
2020-Aug-05 10:15 273 2 gusting 4 13.3
2020-Aug-05 10:10 272 1 gusting 3 13.3
2020-Aug-05 10:05 274 1 gusting 3 13.9
2020-Aug-05 10:00 274 1 gusting 3 13.9
2020-Aug-05 09:55 271 1 gusting 3 13.9
2020-Aug-05 09:50 253 0 gusting 4 13.3
2020-Aug-05 09:45 195 0 gusting 4 13.3
2020-Aug-05 09:40 121 13.3
2020-Aug-05 09:35 098 0 gusting 1 13.3
2020-Aug-05 09:30 089 0 gusting 1 13.3
2020-Aug-05 09:25 087 0 gusting 1 13.3
2020-Aug-05 09:20 080 13.9
2020-Aug-05 09:15 018 0 gusting 2 13.9
2020-Aug-05 09:10 051 0 gusting 2 13.3
2020-Aug-05 09:05 074 0 gusting 3 13.9
2020-Aug-05 09:00 084 13.9
2020-Aug-05 08:55 068 13.9
2020-Aug-05 08:50 023 0 gusting 2 13.9
2020-Aug-05 08:45 014 0 gusting 3 13.9
2020-Aug-05 08:40 007 0 gusting 3 13.9
2020-Aug-05 08:35 352 0 gusting 4 13.9
2020-Aug-05 08:30 002 0 gusting 4 14.4
2020-Aug-05 08:25 029 0 gusting 2 14.4
2020-Aug-05 08:20 042 14.4
2020-Aug-05 08:15 012 0 gusting 4 14.4
2020-Aug-05 08:10 350 0 gusting 4 14.4
2020-Aug-05 08:05 352 0 gusting 4 14.4
2020-Aug-05 08:00 349 1 gusting 6 15.0
2020-Aug-05 07:55 343 1 gusting 6 15.0
2020-Aug-05 07:50 338 1 gusting 5 15.0
2020-Aug-05 07:45 338 2 gusting 6 15.0
2020-Aug-05 07:40 340 2 gusting 6 15.0
2020-Aug-05 07:35 342 2 gusting 6 15.0
2020-Aug-05 07:30 339 1 gusting 5 15.0
2020-Aug-05 07:25 333 1 gusting 5 15.0
2020-Aug-05 07:20 334 1 gusting 5 15.0
2020-Aug-05 07:15 333 1 gusting 8 15.0
2020-Aug-05 07:10 325 1 gusting 8 15.0
2020-Aug-05 07:05 324 2 gusting 7 15.0
2020-Aug-05 07:00 323 2 gusting 7 15.0
2020-Aug-05 06:55 329 2 gusting 6 15.0
2020-Aug-05 06:50 336 3 gusting 9 15.0
2020-Aug-05 06:45 326 3 gusting 9 15.0
2020-Aug-05 06:40 313 2 gusting 7 15.0
2020-Aug-05 06:35 322 3 gusting 7 15.0
2020-Aug-05 06:30 332 3 gusting 7 15.0
2020-Aug-05 06:25 334 3 gusting 6 15.0
2020-Aug-05 06:20 329 3 gusting 7 15.0
2020-Aug-05 06:15 327 2 gusting 7 15.0
2020-Aug-05 06:10 325 2 gusting 6 15.0
2020-Aug-05 06:05 318 1 gusting 4 15.0
2020-Aug-05 06:00 316 2 gusting 7 15.0
2020-Aug-05 05:55 318 2 gusting 7 15.0
2020-Aug-05 05:50 310 1 gusting 6 15.0
2020-Aug-05 05:45 319 2 gusting 7 15.0
2020-Aug-05 05:40 329 2 gusting 7 15.0
2020-Aug-05 05:35 324 2 gusting 6 15.0
2020-Aug-05 05:30 316 1 gusting 5 15.0
2020-Aug-05 05:25 314 0 gusting 3 15.0
2020-Aug-05 05:20 304 0 gusting 2 15.6
2020-Aug-05 05:15 296 1 gusting 3 15.6
2020-Aug-05 05:10 298 1 gusting 4 15.6
2020-Aug-05 05:05 296 1 gusting 5 15.6
2020-Aug-05 04:55 294 1 gusting 4 15.6
2020-Aug-05 04:50 301 1 gusting 5 15.6
2020-Aug-05 04:45 314 1 gusting 6 15.6
2020-Aug-05 04:40 312 1 gusting 6 16.1
2020-Aug-05 04:35 305 0 gusting 4 16.1
2020-Aug-05 04:30 302 0 gusting 2 16.1
2020-Aug-05 04:25 288 0 gusting 2 16.1
2020-Aug-05 04:20 287 1 gusting 3 16.1
2020-Aug-05 04:15 292 1 gusting 4 16.7
2020-Aug-05 04:10 295 0 gusting 4 16.7
2020-Aug-05 04:05 291 0 gusting 3 16.7
2020-Aug-05 04:00 290 0 gusting 2 16.7
2020-Aug-05 03:55 289 1 gusting 3 16.7
2020-Aug-05 03:50 289 2 gusting 3 17.2
2020-Aug-05 03:45 289 2 gusting 4 17.2
2020-Aug-05 03:40 291 2 gusting 4 17.8
2020-Aug-05 03:35 291 2 gusting 4 17.8
2020-Aug-05 03:30 288 2 gusting 3 17.8
2020-Aug-05 03:25 285 1 gusting 3 18.3
2020-Aug-05 03:20 285 1 gusting 3 18.3
2020-Aug-05 03:15 287 1 gusting 3 18.9
2020-Aug-05 03:10 288 1 gusting 3 18.9
2020-Aug-05 03:05 287 2 gusting 3 18.9
2020-Aug-05 03:00 289 2 gusting 4 19.4
2020-Aug-05 02:55 293 2 gusting 4 19.4
2020-Aug-05 02:50 293 1 gusting 3 19.4
2020-Aug-05 02:45 298 1 gusting 6 19.4
2020-Aug-05 02:40 296 2 gusting 6 19.4
2020-Aug-05 02:30 288 2 gusting 3 20.0
2020-Aug-05 02:25 287 2 gusting 5 20.0
2020-Aug-05 02:20 286 2 gusting 5 20.0
2020-Aug-05 02:15 287 2 gusting 3 20.0
2020-Aug-05 02:10 286 2 gusting 4 20.0
2020-Aug-05 02:05 288 2 gusting 4 20.0
2020-Aug-05 02:00 290 2 gusting 3 20.0
2020-Aug-05 01:55 288 2 gusting 3 20.0
2020-Aug-05 01:50 284 2 gusting 3 20.0
2020-Aug-05 01:45 284 2 gusting 3 20.0
2020-Aug-05 01:40 285 2 gusting 3 20.6
2020-Aug-05 01:35 284 1 gusting 3 21.1
2020-Aug-05 01:30 283 1 gusting 2 21.7
2020-Aug-05 01:25 291 1 gusting 2 21.7
2020-Aug-05 01:20 298 1 gusting 2 22.2
2020-Aug-05 01:15 297 0 gusting 2 22.2
2020-Aug-05 01:10 293 1 gusting 3 22.2
2020-Aug-05 01:05 304 2 gusting 7 22.2
2020-Aug-05 01:00 301 2 gusting 7 22.2